Weather reports worldwide

Advertisment
Almeria, Spain (8487): temperature & dewpoint: 06.12.2019 12:00:00 - 12.12.2019 12:00:00 (CET)Almeria, Spain (8487): wind speed: 06.12.2019 12:00:00 - 12.12.2019 12:00:00 (CET)Almeria, Spain (8487): wind direction: 06.12.2019 12:00:00 - 12.12.2019 12:00:00 (CET)Almeria, Spain (8487): reduced air pressure: 06.12.2019 12:00:00 - 12.12.2019 12:00:00 (CET)Almeria, Spain (8487): visibility: 06.12.2019 12:00:00 - 12.12.2019 12:00:00 (CET)
Date & Time tt [°C] td [°C] ff [km/h] ff [kn] dd ppp [hPa] vv [km]
12.12.2019 12:00:00 15,9 2,5 15 8 WNW 1022,4 -
12.12.2019 11:00:00 14,4 3,7 18 10 NW 1022,2 -
12.12.2019 10:00:00 12,3 3,8 26 14 NW 1022,3 50
12.12.2019 09:00:00 11,5 3,5 26 14 NW 1022,2 -
12.12.2019 08:00:00 11,1 3,2 26 14 NNW 1022,2 -
12.12.2019 07:00:00 11,4 3,3 22 12 NW 1022,4 50
12.12.2019 06:00:00 11,7 5,0 16 9 NW 1022,8 -
12.12.2019 05:00:00 11,4 6,5 15 8 N 1023,1 -
12.12.2019 04:00:00 11,0 3,8 11 6 N 1023,4 -
12.12.2019 03:00:00 10,1 4,6 9 5 NNW 1023,5 -
12.12.2019 02:00:00 12,1 3,8 8 4 N 1023,3 -
12.12.2019 01:00:00 14,1 1,8 11 6 WNW 1023,5 -
12.12.2019 00:00:00 15,4 3,1 21 11 NE 1022,9 -
11.12.2019 23:00:00 17,8 0,4 39 21 NNW 1022,1 -
11.12.2019 22:00:00 17,5 1,9 28 15 N 1021,4 60
11.12.2019 21:00:00 18,1 4,3 42 23 NW 1021,1 -
11.12.2019 20:00:00 18,7 5,0 24 13 NW 1020,5 -
11.12.2019 19:00:00 15,8 11,9 8 4 W 1019,9 35
11.12.2019 18:00:00 17,4 10,5 15 8 W 1019,5 -
11.12.2019 17:00:00 17,3 12,9 8 4 SE 1019,1 -
11.12.2019 16:00:00 17,9 12,8 11 6 SSW 1019,3 45
11.12.2019 15:00:00 18,1 13,8 9 5 SSW 1019,4 -
11.12.2019 14:00:00 17,2 13,7 13 7 SSW 1020,1 -
11.12.2019 13:00:00 17,4 13,7 5 3 SSW 1020,7 45
11.12.2019 12:00:00 17,4 13,5 8 4 S 1021,6 -
11.12.2019 11:00:00 16,1 13,4 2 1 SW 1022,2 -
11.12.2019 10:00:00 13,4 12,0 9 5 N 1022,5 17
11.12.2019 09:00:00 11,4 10,5 8 4 N 1022,6 -
11.12.2019 08:00:00 10,6 9,4 11 6 N 1022,0 -
11.12.2019 07:00:00 10,2 9,3 9 5 N 1022,3 25
11.12.2019 06:00:00 9,0 7,6 4 2 N 1022,0 -
11.12.2019 05:00:00 9,5 6,2 5 3 N 1022,1 -
11.12.2019 04:00:00 8,6 4,9 4 2 N 1022,3 -
11.12.2019 03:00:00 8,3 4,9 5 3 N 1022,7 -
11.12.2019 02:00:00 9,4 5,1 13 7 NNW 1023,1 -
11.12.2019 01:00:00 9,7 5,3 4 2 NNW 1023,7 -
11.12.2019 00:00:00 10,7 5,4 9 5 NNW 1024,0 -
10.12.2019 23:00:00 10,2 7,4 4 2 NNW 1024,1 -
10.12.2019 22:00:00 11,1 8,7 5 3 NNE 1024,2 20
10.12.2019 21:00:00 11,6 10,4 0 0 N 1024,4 -
10.12.2019 20:00:00 12,3 11,0 8 4 NNE 1024,3 -
10.12.2019 19:00:00 13,4 11,9 0 0 N 1024,1 20
10.12.2019 18:00:00 15,9 13,9 4 2 SW 1023,7 -
10.12.2019 17:00:00 17,5 14,8 11 6 SW 1024,0 -
10.12.2019 16:00:00 18,0 14,7 11 6 SW 1024,3 45
10.12.2019 15:00:00 18,0 14,8 8 4 SSW 1024,3 -
10.12.2019 14:00:00 18,2 12,0 8 4 SSW 1025,0 -
10.12.2019 13:00:00 18,1 10,4 9 5 SSW 1025,7 50
10.12.2019 12:00:00 17,9 12,1 15 8 SW 1026,4 -
10.12.2019 11:00:00 17,2 9,8 13 7 SW 1026,7 -
10.12.2019 10:00:00 14,7 0,6 16 9 NW 1026,6 50
10.12.2019 09:00:00 12,3 0,6 13 7 NNW 1026,5 -
10.12.2019 08:00:00 12,1 -0,3 21 11 NNW 1026,5 -
10.12.2019 07:00:00 11,9 0,6 21 11 NNW 1026,2 50
10.12.2019 06:00:00 12,6 0,3 22 12 NNW 1026,3 -
10.12.2019 05:00:00 11,0 2,6 16 9 NNW 1026,3 -
10.12.2019 04:00:00 11,3 4,3 15 8 N 1026,9 -
10.12.2019 03:00:00 10,4 6,7 9 5 NNW 1027,0 -
10.12.2019 02:00:00 12,5 6,9 13 7 NNE 1027,1 -
10.12.2019 01:00:00 12,0 9,0 5 3 NNE 1027,0 -
10.12.2019 00:00:00 12,5 9,7 4 2 ENE 1026,9 -
09.12.2019 23:00:00 14,2 8,8 5 3 W 1026,6 -
09.12.2019 22:00:00 13,8 11,5 5 3 NW 1026,8 40
09.12.2019 21:00:00 13,6 12,1 4 2 WNW 1026,6 -
09.12.2019 20:00:00 13,8 11,8 2 1 WNW 1026,5 -
09.12.2019 19:00:00 15,3 13,7 0 0 N 1026,3 40
09.12.2019 18:00:00 16,6 13,5 0 0 N 1025,9 -
09.12.2019 17:00:00 18,7 13,5 0 0 N 1025,8 -
09.12.2019 16:00:00 18,6 14,1 5 3 SSE 1025,7 45
09.12.2019 15:00:00 18,7 14,1 4 2 SE 1025,6 -
09.12.2019 14:00:00 18,7 14,5 5 3 S 1026,0 -
09.12.2019 13:00:00 18,5 13,5 11 6 SSW 1026,6 50
09.12.2019 12:00:00 18,3 12,0 8 4 SW 1027,3 -
09.12.2019 11:00:00 17,5 12,5 5 3 NNE 1026,9 -
09.12.2019 10:00:00 16,8 12,1 8 4 SE 1026,5 50
09.12.2019 09:00:00 13,6 12,7 9 5 NNE 1026,0 -
09.12.2019 08:00:00 12,7 12,2 5 3 N 1025,3 -
09.12.2019 07:00:00 11,7 11,0 5 3 NNW 1024,5 9
09.12.2019 06:00:00 11,7 10,8 4 2 W 1023,9 -
09.12.2019 05:00:00 12,3 10,9 8 4 N 1024,0 -
09.12.2019 04:00:00 12,1 10,6 8 4 NW 1024,0 -
09.12.2019 03:00:00 12,9 12,0 8 4 NE 1024,0 -
09.12.2019 02:00:00 11,8 9,4 8 4 WNW 1023,9 -
09.12.2019 01:00:00 11,9 11,0 8 4 NNW 1024,3 -
09.12.2019 00:00:00 11,9 11,1 5 3 N 1024,4 -
08.12.2019 23:00:00 12,2 11,1 4 2 N 1024,4 -
08.12.2019 22:00:00 12,3 11,4 4 2 WNW 1024,5 35
08.12.2019 21:00:00 12,7 11,8 4 2 NNE 1024,6 -
08.12.2019 20:00:00 13,2 12,1 8 4 NW 1024,5 -
08.12.2019 19:00:00 14,5 12,9 15 8 WSW 1024,0 35
08.12.2019 18:00:00 15,1 12,6 15 8 WSW 1023,8 -
08.12.2019 17:00:00 16,6 12,9 21 11 SW 1023,5 -
08.12.2019 16:00:00 17,1 12,7 21 11 SW 1023,6 45
08.12.2019 15:00:00 17,4 13,5 24 13 SSW 1023,6 -
08.12.2019 14:00:00 17,5 13,2 22 12 SW 1024,2 45
08.12.2019 13:00:00 17,5 13,0 18 10 SW 1024,9 45
08.12.2019 12:00:00 16,9 11,9 16 9 SW 1025,8 -
08.12.2019 11:00:00 16,0 11,0 9 5 WSW 1026,1 -
08.12.2019 10:00:00 13,4 7,5 9 5 NW 1025,8 40
08.12.2019 09:00:00 10,8 6,5 15 8 NNW 1025,4 -
08.12.2019 08:00:00 10,4 6,3 13 7 NW 1024,9 -
08.12.2019 07:00:00 10,4 6,6 15 8 NNW 1024,5 45
08.12.2019 06:00:00 11,0 6,7 15 8 NW 1024,3 -
08.12.2019 05:00:00 10,9 7,2 16 9 NNW 1024,2 -
08.12.2019 04:00:00 11,5 7,6 15 8 NW 1024,6 -
08.12.2019 03:00:00 11,7 8,2 15 8 NNW 1025,0 -
08.12.2019 02:00:00 11,7 8,7 15 8 NNW 1025,0 -
08.12.2019 01:00:00 12,0 9,6 15 8 NNW 1025,3 -
08.12.2019 00:00:00 12,3 10,4 13 7 NW 1025,4 -
07.12.2019 23:00:00 11,9 10,9 11 6 NNW 1025,2 -
07.12.2019 22:00:00 12,6 11,5 9 5 N 1025,0 25
07.12.2019 21:00:00 12,9 11,6 8 4 NE 1024,7 -
07.12.2019 20:00:00 14,3 12,5 4 2 W 1024,0 -
07.12.2019 19:00:00 14,9 12,6 9 5 WSW 1023,4 30
07.12.2019 18:00:00 16,0 12,4 11 6 SW 1022,8 -
07.12.2019 17:00:00 17,3 13,0 11 6 SSW 1022,4 -
07.12.2019 16:00:00 17,8 12,6 15 8 SW 1022,1 35
07.12.2019 15:00:00 18,6 11,4 11 6 SSW 1021,9 -
07.12.2019 14:00:00 18,0 12,3 8 4 SSW 1022,0 -
07.12.2019 13:00:00 18,6 12,8 5 3 S 1022,7 45
07.12.2019 12:00:00 16,9 8,6 8 4 W 1023,3 -
07.12.2019 11:00:00 15,2 8,2 11 6 NNW 1023,5 -
07.12.2019 10:00:00 14,5 8,4 13 7 NNW 1022,7 45
07.12.2019 09:00:00 13,7 8,2 16 9 NNW 1022,1 -
07.12.2019 08:00:00 13,4 8,2 18 10 N 1021,5 -
07.12.2019 07:00:00 14,4 8,0 16 9 NNW 1021,0 45
07.12.2019 06:00:00 14,7 8,2 26 14 NW 1020,3 -
07.12.2019 05:00:00 14,7 8,2 26 14 NW 1020,4 -
07.12.2019 04:00:00 14,8 8,3 22 12 NW 1020,7 -
07.12.2019 03:00:00 14,6 8,3 21 11 NW 1020,9 -
07.12.2019 02:00:00 14,7 8,4 22 12 NW 1021,1 -
07.12.2019 01:00:00 14,6 8,8 18 10 NW 1021,1 -
07.12.2019 00:00:00 13,7 9,2 11 6 NNW 1021,5 -
06.12.2019 23:00:00 14,2 9,5 8 4 N 1021,7 -
06.12.2019 22:00:00 14,4 9,8 0 0 N 1021,4 40
06.12.2019 21:00:00 14,9 10,3 15 8 ENE 1021,3 -
06.12.2019 20:00:00 15,1 10,7 21 11 ENE 1020,9 -
06.12.2019 19:00:00 15,9 10,2 24 13 NE 1020,4 50
06.12.2019 18:00:00 16,0 10,1 18 10 NE 1019,8 -
06.12.2019 17:00:00 17,0 10,4 31 17 ENE 1019,3 -
06.12.2019 16:00:00 18,3 10,1 31 17 ENE 1018,9 50
06.12.2019 15:00:00 19,0 10,4 35 19 ENE 1018,5 -
06.12.2019 14:00:00 19,1 11,1 29 16 ENE 1019,1 -
06.12.2019 13:00:00 18,0 10,4 34 18 ENE 1019,9 50
06.12.2019 12:00:00 18,5 10,8 26 14 NE 1020,9 -

tt = temperature
td = dewpoint
ff = wind speed
dd = wind direction
ppp = reduced air pressure
vv = visibility

Next stations